This is the latest recevied weather packets stored in our database for station/object WP3XM. If no packets are shown the sender has not sent any weather packets the latest 10 day(s).
| Time | Temp. | Humidity | Pressure | Rain* | Wind** | Luminosity | Snow |
|---|---|---|---|---|---|---|---|
| 1778095832 | 28.89° C | 74% | 1017.8 hPa | 0 mm | - | 392 W/m² | - |
| 1778095529 | 28.89° C | 75% | 1017.8 hPa | 0 mm | - | 231 W/m² | - |
| 1778095225 | 28.89° C | 73% | 1017.8 hPa | 0 mm | - | 213 W/m² | - |
| 1778094922 | 28.89° C | 74% | 1017.9 hPa | 0 mm | - | 282 W/m² | - |
| 1778094618 | 28.89° C | 74% | 1018 hPa | 0 mm | - | 247 W/m² | - |
| 1778094315 | 29.44° C | 74% | 1017.9 hPa | 0 mm | - | 268 W/m² | - |
| 1778094012 | 28.89° C | 75% | 1018.1 hPa | 0 mm | - | 705 W/m² | - |
| 1778093709 | 29.44° C | 74% | 1017.8 hPa | 0 mm | - | 603 W/m² | - |
| 1778093406 | 28.89° C | 75% | 1017.8 hPa | 0 mm | - | 888 W/m² | - |
| 1778093103 | 29.44° C | 74% | 1017.9 hPa | 0 mm | - | 607 W/m² | - |
| 1778092800 | 29.44° C | 72% | 1017.9 hPa | 0 mm | - | 301 W/m² | - |
| 1778092496 | 28.89° C | 73% | 1018 hPa | 0 mm | - | 910 W/m² | - |
| 1778092193 | 29.44° C | 73% | 1017.9 hPa | 0 mm | - | 603 W/m² | - |
| 1778091890 | 28.89° C | 73% | 1018.2 hPa | 0 mm | - | 941 W/m² | - |
| 1778091587 | 29.44° C | 73% | 1018.2 hPa | 0 mm | - | 250 W/m² | - |
| 1778091285 | 30° C | 72% | 1018.3 hPa | 0 mm | - | 267 W/m² | - |
| 1778090982 | 29.44° C | 73% | 1018.4 hPa | 0 mm | - | 988 W/m² | - |
| 1778090678 | 29.44° C | 72% | 1018.4 hPa | 0 mm | - | 296 W/m² | - |
| 1778090375 | 29.44° C | 71% | 1018.6 hPa | 0 mm | - | 1043 W/m² | - |
| 1778090072 | 29.44° C | 71% | 1018.6 hPa | 0 mm | - | 242 W/m² | - |
| 1778089768 | 29.44° C | 72% | 1018.7 hPa | 0 mm | - | 1120 W/m² | - |
| 1778089466 | 28.89° C | 71% | 1018.8 hPa | 0 mm | - | 250 W/m² | - |
| 1778089163 | 30° C | 68% | 1018.9 hPa | 0 mm | - | 238 W/m² | - |
| 1778088860 | 30° C | 67% | 1018.8 hPa | 0 mm | - | 1113 W/m² | - |
| 1778088557 | 30° C | 66% | 1019 hPa | 0 mm | - | 1128 W/m² | - |
* Rain latest hour (hover to see other rain measurements)
** Current wind speed in m/s (hover to see current wind gust speed)